| time (UTC) | temp F | wind direction | speed MPH | gust MPH | rain 1hr in | rain 24hr in | rain mn in | humidity % | barometer mb |
| 20260510071203 | 73 | 157 | 0.0 | 4.0 | 0.00 | 0.01 | 0.00 | 81 | 1012.0 |
| 20260510070716 | 73 | 156 | 1.0 | 5.0 | 0.00 | 0.01 | 0.00 | 81 | 1011.9 |
| 20260510070125 | 73 | 157 | 2.0 | 5.0 | 0.00 | 0.01 | 0.00 | 81 | 1012.0 |
| 20260510065634 | 73 | 157 | 2.0 | 6.0 | 0.00 | 0.01 | 0.00 | 81 | 1012.0 |
| 20260510065138 | 73 | 167 | 3.0 | 6.0 | 0.00 | 0.01 | 0.00 | 81 | 1012.0 |
| 20260510064625 | 73 | 160 | 3.0 | 7.0 | 0.00 | 0.01 | 0.00 | 82 | 1012.0 |
| 20260510064125 | 72 | 147 | 2.0 | 5.0 | 0.00 | 0.01 | 0.00 | 82 | 1012.0 |
| 20260510063633 | 73 | 169 | 2.0 | 5.0 | 0.00 | 0.01 | 0.00 | 82 | 1012.0 |
| 20260510063142 | 73 | 157 | 2.0 | 4.0 | 0.00 | 0.01 | 0.00 | 82 | 1012.0 |
| 20260510062648 | 73 | 158 | 1.0 | 2.0 | 0.00 | 0.01 | 0.00 | 81 | 1012.0 |
| 20260510062126 | 74 | 158 | 0.0 | 0.0 | 0.00 | 0.01 | 0.00 | 80 | 1011.9 |
| 20260510061635 | 74 | 158 | 0.0 | 0.0 | 0.00 | 0.01 | 0.00 | 80 | 1011.9 |
| 20260510061144 | 74 | 158 | 0.0 | 1.0 | 0.00 | 0.01 | 0.00 | 80 | 1012.0 |
| 20260510060623 | 74 | 158 | 0.0 | 4.0 | 0.00 | 0.01 | 0.00 | 79 | 1012.1 |
| 20260510060133 | 74 | 158 | 2.0 | 5.0 | 0.00 | 0.01 | 0.00 | 79 | 1012.1 |
| 20260510055701 | 75 | 148 | 2.0 | 7.0 | 0.00 | 0.01 | 0.00 | 79 | 1012.0 |
| 20260510055128 | 75 | 140 | 4.0 | 7.0 | 0.00 | 0.01 | 0.00 | 79 | 1012.0 |
| 20260510054625 | 75 | 119 | 4.0 | 7.0 | 0.00 | 0.01 | 0.00 | 79 | 1012.0 |
| 20260510054134 | 75 | 108 | 4.0 | 8.0 | 0.00 | 0.01 | 0.00 | 79 | 1011.9 |
| 20260510053623 | 75 | 134 | 4.0 | 8.0 | 0.00 | 0.01 | 0.00 | 78 | 1011.9 |
| 20260510053132 | 75 | 146 | 4.0 | 8.0 | 0.00 | 0.01 | 0.00 | 78 | 1012.0 |
| 20260510052627 | 75 | 130 | 3.0 | 7.0 | 0.00 | 0.01 | 0.00 | 78 | 1011.9 |
| 20260510052136 | 75 | 146 | 4.0 | 7.0 | 0.00 | 0.01 | 0.00 | 78 | 1011.9 |
| 20260510051625 | 75 | 142 | 2.0 | 6.0 | 0.00 | 0.01 | 0.00 | 78 | 1011.8 |
| 20260510051125 | 75 | 151 | 2.0 | 6.0 | 0.00 | 0.01 | 0.00 | 78 | 1011.8 |
| 20260510050634 | 75 | 117 | 3.0 | 7.0 | 0.00 | 0.01 | 0.00 | 78 | 1011.7 |
| 20260510050142 | 75 | 138 | 3.0 | 7.0 | 0.00 | 0.01 | 0.00 | 78 | 1011.8 |
| 20260510045648 | 75 | 139 | 3.0 | 6.0 | 0.00 | 0.01 | 0.01 | 78 | 1011.7 |
| 20260510045202 | 75 | 139 | 3.0 | 7.0 | 0.00 | 0.01 | 0.01 | 78 | 1011.6 |
| 20260510044656 | 75 | 145 | 3.0 | 7.0 | 0.00 | 0.01 | 0.01 | 79 | 1011.5 |
| 20260510044221 | 75 | 140 | 4.0 | 7.0 | 0.00 | 0.01 | 0.01 | 79 | 1011.5 |
| 20260510043638 | 74 | 132 | 2.0 | 7.0 | 0.00 | 0.01 | 0.01 | 79 | 1011.6 |
| 20260510043202 | 74 | 129 | 2.0 | 5.0 | 0.00 | 0.01 | 0.01 | 79 | 1011.6 |
| 20260510042657 | 74 | 117 | 0.0 | 2.0 | 0.00 | 0.01 | 0.01 | 78 | 1011.5 |
| 20260510042211 | 75 | 130 | 0.0 | 2.0 | 0.00 | 0.01 | 0.01 | 78 | 1011.6 |
| 20260510041633 | 75 | 130 | 1.0 | 2.0 | 0.00 | 0.01 | 0.01 | 78 | 1011.5 |
| 20260510041152 | 75 | 130 | 0.0 | 2.0 | 0.00 | 0.01 | 0.01 | 78 | 1011.4 |
| 20260510040134 | 75 | 128 | 0.0 | 4.0 | 0.00 | 0.01 | 0.01 | 77 | 1011.2 |
| 20260510035647 | 75 | 128 | 1.0 | 4.0 | 0.00 | 0.01 | 0.01 | 77 | 1011.2 |
| 20260510035204 | 75 | 128 | 1.0 | 4.0 | 0.00 | 0.01 | 0.01 | 77 | 1011.2 |
| 20260510034703 | 75 | 155 | 0.0 | 1.0 | 0.00 | 0.01 | 0.01 | 77 | 1011.3 |
| 20260510034201 | 75 | 155 | 0.0 | 2.0 | 0.00 | 0.01 | 0.01 | 77 | 1011.2 |
| 20260510033715 | 76 | 155 | 1.0 | 2.0 | 0.00 | 0.01 | 0.01 | 77 | 1011.2 |
| 20260510033212 | 76 | 155 | 0.0 | 1.0 | 0.00 | 0.01 | 0.01 | 76 | 1011.2 |
| 20260510032705 | 76 | 155 | 0.0 | 1.0 | 0.00 | 0.01 | 0.01 | 75 | 1011.1 |
| 20260510032150 | 77 | 155 | 0.0 | 0.0 | 0.00 | 0.01 | 0.01 | 75 | 1011.1 |
| 20260510031648 | 77 | 155 | 0.0 | 0.0 | 0.00 | 0.01 | 0.01 | 74 | 1011.1 |
| 20260510031158 | 77 | 155 | 0.0 | 0.0 | 0.00 | 0.01 | 0.01 | 73 | 1011.0 |
| 20260510030702 | 78 | 156 | 0.0 | 4.0 | 0.00 | 0.01 | 0.01 | 72 | 1011.0 |
| 20260510030219 | 78 | 156 | 0.0 | 4.0 | 0.00 | 0.01 | 0.01 | 72 | 1010.9 |
| 20260510025630 | 78 | 140 | 0.0 | 4.0 | 0.00 | 0.01 | 0.01 | 72 | 1010.8 |
| 20260510025151 | 78 | 140 | 1.0 | 5.0 | 0.00 | 0.01 | 0.01 | 72 | 1010.8 |
| 20260510024708 | 78 | 140 | 1.0 | 5.0 | 0.00 | 0.01 | 0.01 | 72 | 1010.8 |
| 20260510024230 | 79 | 132 | 3.0 | 7.0 | 0.00 | 0.01 | 0.01 | 71 | 1010.7 |
| 20260510023700 | 79 | 118 | 3.0 | 7.0 | 0.00 | 0.01 | 0.01 | 71 | 1010.6 |
| 20260510023208 | 79 | 107 | 2.0 | 6.0 | 0.00 | 0.01 | 0.01 | 71 | 1010.7 |
| 20260510022722 | 79 | 90 | 4.0 | 7.0 | 0.00 | 0.01 | 0.01 | 71 | 1010.7 |
| 20260510022135 | 79 | 81 | 4.0 | 8.0 | 0.00 | 0.01 | 0.01 | 70 | 1010.5 |
| 20260510021647 | 79 | 98 | 6.0 | 8.0 | 0.00 | 0.01 | 0.01 | 70 | 1010.4 |
| 20260510021141 | 79 | 83 | 4.0 | 9.0 | 0.00 | 0.01 | 0.01 | 69 | 1010.4 |
| 20260510020706 | 79 | 100 | 3.0 | 9.0 | 0.00 | 0.01 | 0.01 | 69 | 1010.4 |
| 20260510020220 | 79 | 88 | 3.0 | 8.0 | 0.00 | 0.01 | 0.01 | 68 | 1010.4 |
| 20260510015738 | 80 | 105 | 1.0 | 8.0 | 0.00 | 0.01 | 0.01 | 67 | 1010.2 |
| 20260510015128 | 80 | 109 | 2.0 | 10.0 | 0.00 | 0.01 | 0.01 | 66 | 1010.2 |
| 20260510014648 | 80 | 102 | 4.0 | 9.0 | 0.00 | 0.01 | 0.01 | 65 | 1010.2 |
| 20260510014207 | 80 | 101 | 4.0 | 9.0 | 0.00 | 0.01 | 0.01 | 64 | 1010.1 |
| 20260510013719 | 80 | 157 | 4.0 | 9.0 | 0.00 | 0.01 | 0.01 | 63 | 1010.0 |
| 20260510013135 | 81 | 106 | 5.0 | 9.0 | 0.00 | 0.01 | 0.01 | 61 | 1009.9 |
| 20260510012700 | 81 | 102 | 4.0 | 9.0 | 0.00 | 0.01 | 0.01 | 61 | 1009.9 |
| 20260510012215 | 81 | 69 | 6.0 | 11.0 | 0.00 | 0.01 | 0.01 | 61 | 1009.8 |
| 20260510011717 | 82 | 75 | 7.0 | 11.0 | 0.00 | 0.01 | 0.01 | 62 | 1009.8 |
| 20260510011213 | 82 | 90 | 5.0 | 10.0 | 0.00 | 0.01 | 0.01 | 62 | 1009.7 |
| 20260510010625 | 82 | 124 | 5.0 | 10.0 | 0.00 | 0.01 | 0.01 | 61 | 1009.6 |
| 20260510010143 | 82 | 137 | 3.0 | 9.0 | 0.00 | 0.01 | 0.01 | 61 | 1009.4 |
| 20260510005221 | 83 | 98 | 6.0 | 10.0 | 0.00 | 0.01 | 0.01 | 62 | 1009.2 |
| 20260510004721 | 83 | 101 | 5.0 | 9.0 | 0.00 | 0.01 | 0.01 | 61 | 1009.2 |
| 20260510004128 | 84 | 97 | 5.0 | 10.0 | 0.00 | 0.01 | 0.01 | 60 | 1009.0 |
| 20260510003653 | 84 | 103 | 4.0 | 10.0 | 0.00 | 0.01 | 0.01 | 59 | 1009.0 |
| 20260510002702 | 84 | 78 | 5.0 | 10.0 | 0.00 | 0.01 | 0.01 | 56 | 1009.0 |
| 20260510002156 | 84 | 100 | 3.0 | 10.0 | 0.00 | 0.01 | 0.01 | 54 | 1008.9 |
| 20260510001653 | 84 | 101 | 4.0 | 9.0 | 0.00 | 0.01 | 0.01 | 52 | 1008.9 |
| 20260510001130 | 84 | 101 | 5.0 | 10.0 | 0.00 | 0.01 | 0.01 | 54 | 1008.9 |
| 20260510000628 | 84 | 88 | 6.0 | 10.0 | 0.00 | 0.01 | 0.01 | 60 | 1008.9 |
| 20260510000148 | 84 | 115 | 3.0 | 6.0 | 0.00 | 0.01 | 0.01 | 61 | 1008.7 |
| 20260509235626 | 84 | 107 | 0.0 | 5.0 | 0.00 | 0.01 | 0.01 | 61 | 1008.5 |
| 20260509235142 | 84 | 102 | 2.0 | 5.0 | 0.00 | 0.01 | 0.01 | 61 | 1008.6 |
| 20260509234637 | 84 | 107 | 2.0 | 5.0 | 0.00 | 0.01 | 0.01 | 60 | 1008.6 |
| 20260509234158 | 85 | 81 | 2.0 | 6.0 | 0.00 | 0.01 | 0.01 | 59 | 1008.5 |
| 20260509233700 | 85 | 80 | 3.0 | 7.0 | 0.00 | 0.01 | 0.01 | 59 | 1008.5 |
| 20260509233216 | 85 | 110 | 4.0 | 8.0 | 0.00 | 0.01 | 0.01 | 59 | 1008.6 |
| 20260509232722 | 85 | 137 | 4.0 | 12.0 | 0.00 | 0.01 | 0.01 | 58 | 1008.7 |
| 20260509232131 | 86 | 107 | 6.0 | 12.0 | 0.00 | 0.01 | 0.01 | 58 | 1008.6 |
| 20260509231652 | 86 | 107 | 7.0 | 12.0 | 0.00 | 0.01 | 0.01 | 57 | 1008.6 |
| 20260509231149 | 86 | 127 | 6.0 | 13.0 | 0.00 | 0.01 | 0.01 | 57 | 1008.6 |
| 20260509230705 | 86 | 98 | 6.0 | 15.0 | 0.00 | 0.01 | 0.01 | 57 | 1008.8 |
| 20260509230207 | 86 | 101 | 8.0 | 15.0 | 0.00 | 0.01 | 0.01 | 55 | 1008.9 |
| 20260509225722 | 86 | 96 | 8.0 | 15.0 | 0.00 | 0.01 | 0.01 | 56 | 1008.6 |
| 20260509225222 | 87 | 91 | 7.0 | 18.0 | 0.00 | 0.01 | 0.01 | 55 | 1008.6 |
| 20260509224631 | 89 | 93 | 9.0 | 18.0 | 0.00 | 0.01 | 0.01 | 53 | 1008.7 |
| 20260509224139 | 90 | 88 | 7.0 | 11.0 | 0.00 | 0.01 | 0.01 | 51 | 1008.8 |
| 20260509223136 | 91 | 225 | 1.0 | 2.0 | 0.00 | 0.01 | 0.01 | 49 | 1008.7 |
| 20260509222650 | 91 | 263 | 0.0 | 4.0 | 0.00 | 0.01 | 0.01 | 51 | 1008.7 |
| 20260509222211 | 90 | 263 | 1.0 | 7.0 | 0.00 | 0.01 | 0.01 | 48 | 1008.6 |
| 20260509221722 | 90 | 264 | 1.0 | 7.0 | 0.00 | 0.01 | 0.01 | 48 | 1008.6 |
| 20260509221200 | 92 | 323 | 1.0 | 5.0 | 0.00 | 0.01 | 0.01 | 50 | 1008.7 |
| 20260509220700 | 90 | 336 | 1.0 | 4.0 | 0.00 | 0.01 | 0.01 | 51 | 1008.7 |
| 20260509220227 | 89 | 30 | 0.0 | 1.0 | 0.00 | 0.01 | 0.01 | 52 | 1008.8 |
| 20260509215717 | 88 | 154 | 0.0 | 1.0 | 0.00 | 0.01 | 0.01 | 55 | 1008.8 |
| 20260509215133 | 88 | 154 | 0.0 | 4.0 | 0.00 | 0.01 | 0.01 | 53 | 1008.7 |
| 20260509214743 | 89 | 154 | 0.0 | 4.0 | 0.00 | 0.01 | 0.01 | 52 | 1008.7 |
| 20260509214220 | 89 | 154 | 1.0 | 9.0 | 0.00 | 0.01 | 0.01 | 53 | 1008.9 |
| 20260509213631 | 90 | 161 | 5.0 | 9.0 | 0.00 | 0.01 | 0.01 | 51 | 1008.8 |
| 20260509213143 | 90 | 255 | 4.0 | 7.0 | 0.00 | 0.01 | 0.01 | 52 | 1008.9 |
| 20260509212707 | 90 | 200 | 5.0 | 7.0 | 0.00 | 0.01 | 0.01 | 49 | 1008.9 |
| 20260509212140 | 90 | 177 | 0.0 | 8.0 | 0.00 | 0.01 | 0.01 | 51 | 1008.9 |
| 20260509211653 | 90 | 238 | 1.0 | 10.0 | 0.00 | 0.01 | 0.01 | 54 | 1008.9 |
| 20260509211148 | 90 | 246 | 2.0 | 10.0 | 0.00 | 0.01 | 0.01 | 54 | 1008.9 |
| 20260509210647 | 89 | 167 | 2.0 | 9.0 | 0.00 | 0.01 | 0.01 | 53 | 1009.0 |
| 20260509205720 | 89 | 235 | 0.0 | 10.0 | 0.00 | 0.01 | 0.01 | 53 | 1009.1 |
| 20260509205216 | 89 | 223 | 6.0 | 10.0 | 0.00 | 0.01 | 0.01 | 54 | 1009.2 |
| 20260509204239 | 90 | 299 | 2.0 | 6.0 | 0.00 | 0.01 | 0.01 | 54 | 1009.5 |
| 20260509203637 | 89 | 277 | 3.0 | 10.0 | 0.00 | 0.01 | 0.01 | 52 | 1009.5 |
| 20260509203138 | 88 | 241 | 6.0 | 10.0 | 0.00 | 0.01 | 0.01 | 54 | 1009.5 |
| 20260509202635 | 87 | 176 | 4.0 | 8.0 | 0.00 | 0.01 | 0.01 | 56 | 1009.6 |
| 20260509202142 | 88 | 163 | 1.0 | 12.0 | 0.00 | 0.01 | 0.01 | 55 | 1009.6 |
| 20260509201706 | 89 | 165 | 6.0 | 12.0 | 0.00 | 0.01 | 0.01 | 54 | 1009.6 |
| 20260509201221 | 90 | 226 | 3.0 | 7.0 | 0.00 | 0.01 | 0.01 | 53 | 1009.6 |
| 20260509200146 | 88 | 232 | 3.0 | 12.0 | 0.00 | 0.01 | 0.01 | 59 | 1009.9 |
| 20260509195659 | 88 | 222 | 6.0 | 13.0 | 0.00 | 0.01 | 0.01 | 56 | 1009.8 |
| 20260509195213 | 88 | 221 | 7.0 | 13.0 | 0.00 | 0.01 | 0.01 | 56 | 1010.0 |
| 20260509194714 | 89 | 242 | 3.0 | 12.0 | 0.00 | 0.01 | 0.01 | 57 | 1010.1 |
| 20260509194210 | 88 | 173 | 4.0 | 8.0 | 0.00 | 0.01 | 0.01 | 57 | 1010.2 |
| 20260509193721 | 87 | 193 | 5.0 | 14.0 | 0.00 | 0.01 | 0.01 | 57 | 1010.4 |
| 20260509193241 | 88 | 207 | 4.0 | 14.0 | 0.00 | 0.01 | 0.01 | 57 | 1010.5 |
| 20260509192630 | 88 | 198 | 8.0 | 13.0 | 0.00 | 0.01 | 0.01 | 57 | 1010.6 |
| 20260509192158 | 88 | 222 | 2.0 | 9.0 | 0.00 | 0.01 | 0.01 | 58 | 1010.6 |
| 20260509191709 | 88 | 203 | 6.0 | 9.0 | 0.00 | 0.01 | 0.01 | 59 | 1010.7 |
| 20260509191221 | 87 | 209 | 7.0 | 9.0 | 0.00 | 0.01 | 0.01 | 59 | 1010.8 |
| 20260509190625 | 86 | 269 | 1.0 | 9.0 | 0.00 | 0.01 | 0.01 | 60 | 1010.8 |
| 20260509190154 | 87 | 300 | 6.0 | 9.0 | 0.00 | 0.01 | 0.01 | 60 | 1010.8 |
| 20260509185130 | 87 | 255 | 4.0 | 10.0 | 0.00 | 0.01 | 0.01 | 60 | 1010.8 |
| 20260509184653 | 86 | 288 | 4.0 | 8.0 | 0.00 | 0.01 | 0.01 | 62 | 1010.9 |
| 20260509183632 | 86 | 274 | 6.0 | 12.0 | 0.00 | 0.01 | 0.01 | 62 | 1011.0 |
| 20260509183154 | 86 | 219 | 5.0 | 11.0 | 0.00 | 0.01 | 0.01 | 61 | 1011.0 |
| 20260509182706 | 86 | 242 | 5.0 | 12.0 | 0.00 | 0.01 | 0.01 | 62 | 1011.0 |
| 20260509182218 | 86 | 228 | 4.0 | 12.0 | 0.00 | 0.01 | 0.01 | 61 | 1011.1 |
| 20260509181719 | 86 | 171 | 5.0 | 12.0 | 0.00 | 0.01 | 0.01 | 62 | 1011.2 |
| 20260509181214 | 86 | 232 | 3.0 | 9.0 | 0.00 | 0.01 | 0.01 | 61 | 1011.2 |
| 20260509180708 | 85 | 282 | 4.0 | 10.0 | 0.00 | 0.01 | 0.01 | 64 | 1011.3 |
| 20260509180202 | 84 | 181 | 3.0 | 10.0 | 0.00 | 0.01 | 0.01 | 64 | 1011.2 |
| 20260509175714 | 84 | 254 | 2.0 | 9.0 | 0.00 | 0.01 | 0.01 | 67 | 1011.4 |
| 20260509175136 | 84 | 238 | 3.0 | 9.0 | 0.00 | 0.01 | 0.01 | 68 | 1011.4 |
| 20260509174653 | 83 | 263 | 4.0 | 8.0 | 0.00 | 0.01 | 0.01 | 68 | 1011.5 |
| 20260509173731 | 85 | 202 | 4.0 | 9.0 | 0.00 | 0.01 | 0.01 | 65 | 1011.6 |
| 20260509173123 | 84 | 290 | 3.0 | 8.0 | 0.00 | 0.01 | 0.01 | 69 | 1011.7 |
| 20260509172637 | 84 | 217 | 1.0 | 10.0 | 0.00 | 0.01 | 0.01 | 67 | 1011.8 |
| 20260509172154 | 83 | 260 | 2.0 | 12.0 | 0.00 | 0.01 | 0.01 | 71 | 1011.7 |
| 20260509171130 | 83 | 267 | 3.0 | 10.0 | 0.00 | 0.01 | 0.01 | 72 | 1011.8 |
| 20260509170625 | 82 | 272 | 7.0 | 10.0 | 0.00 | 0.01 | 0.01 | 72 | 1011.7 |
| 20260509170141 | 81 | 265 | 3.0 | 9.0 | 0.00 | 0.01 | 0.01 | 73 | 1011.9 |
| 20260509165625 | 82 | 232 | 3.0 | 7.0 | 0.00 | 0.01 | 0.01 | 72 | 1011.9 |
| 20260509165138 | 82 | 223 | 4.0 | 8.0 | 0.00 | 0.01 | 0.01 | 73 | 1011.9 |
| 20260509164647 | 82 | 243 | 5.0 | 8.0 | 0.00 | 0.01 | 0.01 | 74 | 1011.9 |
| 20260509163638 | 81 | 300 | 3.0 | 6.0 | 0.00 | 0.01 | 0.01 | 74 | 1011.9 |
| 20260509163156 | 80 | 271 | 1.0 | 9.0 | 0.00 | 0.01 | 0.01 | 82 | 1012.0 |
| 20260509162720 | 79 | 271 | 6.0 | 9.0 | 0.01 | 0.01 | 0.01 | 80 | 1012.0 |
| 20260509162209 | 80 | 340 | 0.0 | 6.0 | 0.01 | 0.01 | 0.01 | 80 | 1012.1 |
| 20260509161722 | 79 | 153 | 1.0 | 4.0 | 0.01 | 0.01 | 0.01 | 81 | 1012.1 |
| 20260509161140 | 79 | 153 | 2.0 | 4.0 | 0.01 | 0.01 | 0.01 | 80 | 1012.1 |
| 20260509160653 | 80 | 169 | 0.0 | 5.0 | 0.01 | 0.01 | 0.01 | 82 | 1012.0 |
| 20260509155642 | 78 | 178 | 1.0 | 8.0 | 0.01 | 0.01 | 0.01 | 86 | 1012.0 |
| 20260509155155 | 77 | 166 | 5.0 | 10.0 | 0.01 | 0.01 | 0.01 | 88 | 1012.1 |
| 20260509154126 | 76 | 217 | 4.0 | 12.0 | 0.01 | 0.01 | 0.01 | 92 | 1012.0 |
| 20260509153640 | 75 | 207 | 5.0 | 14.0 | 0.01 | 0.01 | 0.01 | 93 | 1011.9 |
| 20260509153202 | 74 | 138 | 9.0 | 14.0 | 0.01 | 0.01 | 0.01 | 95 | 1011.7 |
| 20260509152726 | 74 | 138 | 4.0 | 8.0 | 0.00 | 0.00 | 0.00 | 95 | 1012.0 |
| 20260509152201 | 73 | 188 | 6.0 | 8.0 | 0.00 | 0.00 | 0.00 | 95 | 1012.4 |
| 20260509151654 | 74 | 144 | 3.0 | 8.0 | 0.00 | 0.00 | 0.00 | 95 | 1012.5 |
| 20260509150642 | 73 | 167 | 4.0 | 6.0 | 0.00 | 0.00 | 0.00 | 96 | 1012.3 |
| 20260509150155 | 73 | 168 | 0.0 | 5.0 | 0.00 | 0.00 | 0.00 | 96 | 1012.6 |
| 20260509145150 | 73 | 184 | 3.0 | 5.0 | 0.00 | 0.00 | 0.00 | 96 | 1012.9 |
| 20260509144643 | 73 | 184 | 3.0 | 5.0 | 0.00 | 0.00 | 0.00 | 96 | 1012.7 |
| 20260509143634 | 72 | 164 | 2.0 | 6.0 | 0.00 | 0.00 | 0.00 | 96 | 1012.8 |
| 20260509143144 | 72 | 144 | 4.0 | 6.0 | 0.00 | 0.00 | 0.00 | 96 | 1012.8 |
| 20260509142705 | 72 | 127 | 4.0 | 6.0 | 0.00 | 0.00 | 0.00 | 96 | 1012.8 |
| 20260509142158 | 72 | 57 | 2.0 | 5.0 | 0.00 | 0.00 | 0.00 | 96 | 1012.6 |
| 20260509141710 | 72 | 20 | 1.0 | 3.0 | 0.00 | 0.00 | 0.00 | 96 | 1012.4 |
| 20260509141215 | 72 | 19 | 1.0 | 4.0 | 0.00 | 0.00 | 0.00 | 96 | 1012.1 |
| 20260509140225 | 73 | 19 | 0.0 | 0.0 | 0.00 | 0.00 | 0.00 | 97 | 1011.6 |
| 20260509135659 | 72 | 19 | 0.0 | 0.0 | 0.00 | 0.00 | 0.00 | 97 | 1011.4 |
| 20260509135154 | 72 | 19 | 0.0 | 2.0 | 0.00 | 0.00 | 0.00 | 96 | 1011.4 |
| 20260509134144 | 72 | 19 | 0.0 | 2.0 | 0.00 | 0.00 | 0.00 | 97 | 1011.6 |
| 20260509133655 | 72 | 136 | 0.0 | 0.0 | 0.00 | 0.00 | 0.00 | 97 | 1011.7 |
| 20260509133152 | 72 | 135 | 0.0 | 0.0 | 0.00 | 0.00 | 0.00 | 97 | 1011.7 |
| 20260509132645 | 72 | 135 | 0.0 | 0.0 | 0.00 | 0.00 | 0.00 | 96 | 1012.0 |
| 20260509132141 | 72 | 135 | 0.0 | 2.0 | 0.00 | 0.00 | 0.00 | 96 | 1011.9 |
| 20260509131642 | 72 | 136 | 1.0 | 2.0 | 0.00 | 0.00 | 0.00 | 96 | 1011.9 |
| 20260509131138 | 72 | 136 | 0.0 | 5.0 | 0.00 | 0.00 | 0.00 | 96 | 1011.8 |
| 20260509130129 | 72 | 69 | 1.0 | 4.0 | 0.00 | 0.00 | 0.00 | 97 | 1011.7 |
| 20260509125710 | 72 | 91 | 0.0 | 4.0 | 0.00 | 0.00 | 0.00 | 96 | 1011.8 |
| 20260509125204 | 72 | 92 | 2.0 | 6.0 | 0.00 | 0.00 | 0.00 | 96 | 1011.5 |
| 20260509124706 | 72 | 69 | 3.0 | 6.0 | 0.00 | 0.00 | 0.00 | 96 | 1011.6 |
| 20260509124219 | 72 | 360 | 0.0 | 4.0 | 0.00 | 0.00 | 0.00 | 96 | 1011.7 |
| 20260509123724 | 72 | 360 | 0.0 | 6.0 | 0.00 | 0.00 | 0.00 | 96 | 1011.7 |
| 20260509123216 | 72 | 360 | 2.0 | 6.0 | 0.00 | 0.00 | 0.00 | 96 | 1011.6 |
| 20260509122630 | 72 | 360 | 2.0 | 6.0 | 0.00 | 0.00 | 0.00 | 96 | 1011.9 |
| 20260509122129 | 72 | 40 | 2.0 | 6.0 | 0.00 | 0.00 | 0.00 | 96 | 1011.6 |
| 20260509121652 | 72 | 31 | 3.0 | 6.0 | 0.00 | 0.00 | 0.00 | 96 | 1011.7 |
| 20260509120631 | 72 | 88 | 4.0 | 6.0 | 0.00 | 0.00 | 0.00 | 96 | 1011.6 |
| 20260509120155 | 72 | 46 | 1.0 | 6.0 | 0.00 | 0.00 | 0.00 | 96 | 1011.7 |
| 20260509115704 | 72 | 38 | 3.0 | 7.0 | 0.00 | 0.00 | 0.00 | 96 | 1011.8 |
| 20260509115216 | 72 | 5 | 2.0 | 9.0 | 0.00 | 0.00 | 0.00 | 96 | 1011.9 |
| 20260509114634 | 72 | 9 | 5.0 | 9.0 | 0.00 | 0.00 | 0.00 | 96 | 1012.0 |
| 20260509114152 | 72 | 39 | 5.0 | 12.0 | 0.00 | 0.00 | 0.00 | 96 | 1012.0 |
| 20260509113704 | 72 | 5 | 4.0 | 12.0 | 0.00 | 0.00 | 0.00 | 96 | 1012.0 |
| 20260509113227 | 72 | 13 | 4.0 | 11.0 | 0.00 | 0.00 | 0.00 | 96 | 1011.8 |
| 20260509112720 | 72 | 12 | 4.0 | 11.0 | 0.00 | 0.00 | 0.00 | 96 | 1011.8 |
| 20260509112221 | 72 | 342 | 3.0 | 8.0 | 0.00 | 0.00 | 0.00 | 96 | 1011.7 |
| 20260509111720 | 72 | 5 | 5.0 | 7.0 | 0.00 | 0.00 | 0.00 | 96 | 1011.5 |
| 20260509111239 | 72 | 347 | 3.0 | 6.0 | 0.00 | 0.00 | 0.00 | 96 | 1011.4 |
| 20260509110640 | 72 | 5 | 1.0 | 4.0 | 0.00 | 0.00 | 0.00 | 96 | 1011.1 |
| 20260509110154 | 72 | 5 | 0.0 | 4.0 | 0.00 | 0.00 | 0.00 | 96 | 1011.1 |
| 20260509105133 | 72 | 42 | 0.0 | 0.0 | 0.00 | 0.00 | 0.00 | 96 | 1011.2 |
| 20260509104658 | 72 | 42 | 0.0 | 0.0 | 0.00 | 0.00 | 0.00 | 96 | 1011.3 |
| 20260509104214 | 72 | 42 | 0.0 | 0.0 | 0.00 | 0.00 | 0.00 | 96 | 1011.2 |
| 20260509103632 | 72 | 42 | 0.0 | 5.0 | 0.00 | 0.00 | 0.00 | 96 | 1011.4 |
| 20260509103147 | 72 | 42 | 0.0 | 5.0 | 0.00 | 0.00 | 0.00 | 96 | 1011.4 |
| 20260509102645 | 72 | 43 | 2.0 | 4.0 | 0.00 | 0.00 | 0.00 | 96 | 1011.4 |
| 20260509102158 | 72 | 43 | 1.0 | 5.0 | 0.00 | 0.00 | 0.00 | 96 | 1011.3 |
| 20260509101720 | 72 | 46 | 2.0 | 6.0 | 0.00 | 0.00 | 0.00 | 96 | 1011.3 |
| 20260509101134 | 72 | 48 | 2.0 | 6.0 | 0.00 | 0.00 | 0.00 | 96 | 1011.3 |
| 20260509100658 | 72 | 51 | 1.0 | 4.0 | 0.00 | 0.00 | 0.00 | 96 | 1011.3 |
| 20260509095640 | 72 | 42 | 3.0 | 6.0 | 0.00 | 0.00 | 0.00 | 96 | 1011.1 |
| 20260509095204 | 72 | 51 | 3.0 | 7.0 | 0.00 | 0.00 | 0.00 | 96 | 1011.0 |
| 20260509094658 | 72 | 44 | 3.0 | 7.0 | 0.00 | 0.00 | 0.00 | 96 | 1011.0 |
| 20260509093722 | 72 | 29 | 1.0 | 6.0 | 0.00 | 0.00 | 0.00 | 96 | 1010.8 |
| 20260509093210 | 72 | 29 | 4.0 | 6.0 | 0.00 | 0.00 | 0.00 | 96 | 1010.5 |
| 20260509092705 | 72 | 85 | 1.0 | 4.0 | 0.00 | 0.00 | 0.00 | 96 | 1010.3 |
| 20260509092221 | 72 | 93 | 1.0 | 4.0 | 0.00 | 0.00 | 0.00 | 96 | 1010.4 |
| 20260509091719 | 72 | 148 | 1.0 | 2.0 | 0.00 | 0.00 | 0.00 | 96 | 1010.3 |
| 20260509091129 | 72 | 148 | 1.0 | 2.0 | 0.00 | 0.00 | 0.00 | 96 | 1010.5 |
| 20260509090655 | 72 | 148 | 0.0 | 0.0 | 0.00 | 0.00 | 0.00 | 96 | 1010.6 |
| 20260509090151 | 72 | 148 | 0.0 | 1.0 | 0.00 | 0.00 | 0.00 | 96 | 1010.6 |
| 20260509085706 | 72 | 148 | 0.0 | 1.0 | 0.00 | 0.00 | 0.00 | 96 | 1010.5 |
| 20260509085215 | 72 | 148 | 0.0 | 0.0 | 0.00 | 0.00 | 0.00 | 96 | 1010.4 |
| 20260509084626 | 72 | 148 | 0.0 | 4.0 | 0.00 | 0.00 | 0.00 | 96 | 1010.4 |
| 20260509084205 | 72 | 148 | 0.0 | 5.0 | 0.00 | 0.00 | 0.00 | 96 | 1010.5 |
| 20260509083659 | 72 | 148 | 3.0 | 5.0 | 0.00 | 0.00 | 0.00 | 96 | 1010.6 |
| 20260509083153 | 72 | 155 | 0.0 | 5.0 | 0.00 | 0.00 | 0.00 | 95 | 1010.5 |
| 20260509082649 | 72 | 149 | 0.0 | 5.0 | 0.00 | 0.00 | 0.00 | 95 | 1010.6 |
| 20260509082156 | 72 | 153 | 2.0 | 5.0 | 0.00 | 0.00 | 0.00 | 95 | 1010.7 |
| 20260509081717 | 72 | 191 | 0.0 | 7.0 | 0.00 | 0.00 | 0.00 | 95 | 1010.8 |
| 20260509081208 | 72 | 192 | 3.0 | 7.0 | 0.00 | 0.00 | 0.00 | 95 | 1010.8 |
| 20260509080709 | 72 | 162 | 4.0 | 7.0 | 0.00 | 0.00 | 0.00 | 95 | 1010.8 |
| 20260509080219 | 72 | 173 | 3.0 | 7.0 | 0.00 | 0.00 | 0.00 | 95 | 1010.8 |
| 20260509075135 | 72 | 136 | 4.0 | 6.0 | 0.00 | 0.00 | 0.00 | 95 | 1010.4 |
| 20260509074659 | 72 | 157 | 0.0 | 4.0 | 0.00 | 0.00 | 0.00 | 95 | 1010.5 |
| 20260509074150 | 72 | 175 | 2.0 | 4.0 | 0.00 | 0.00 | 0.00 | 95 | 1010.6 |
| 20260509073141 | 72 | 163 | 2.0 | 7.0 | 0.00 | 0.00 | 0.00 | 95 | 1010.5 |
| 20260509072656 | 72 | 183 | 2.0 | 11.0 | 0.00 | 0.00 | 0.00 | 95 | 1010.5 |
| 20260509071643 | 72 | 142 | 1.0 | 8.0 | 0.00 | 0.00 | 0.00 | 94 | 1010.5 |